#timestamp,LO_Frequency,Hit,StdDev 
1619866815.1,286047000.4,N
1619866835.9,286047000.6,N
1619866855.7,286047002.1,N
1619866875.5,286047004.4,N
1619866895.4,286047005.6,N
1619866915.2,286047003.8,N
1619866935.0,286047003.1,N
1619866935.9,286047003.1,N
1619866955.8,286047005.6,N
1619866975.6,286047003.0,N
1619866995.5,286047003.9,N
1619867015.3,286047002.7,N
1619867035.1,286047002.6,N
1619867055.9,286047002.6,N
1619867075.7,286047000.0,N
1619867095.6,286047004.4,N
1619867115.4,286046999.9,N
1619867135.2,286047000.6,N
1619867155.1,286047002.3,N
1619867156.0,286047002.3,N
1619867175.8,286046999.9,N
1619867195.7,286047002.6,N
1619867215.5,286047001.4,N
1619867235.3,286047004.0,N
1619867255.2,286047002.0,N
1619867275.0,286047004.2,N
1619867275.9,286047004.2,N
1619867295.7,286047002.3,N
1619867315.6,286047002.2,N
1619867335.4,286047001.3,N
1619867355.3,286047004.1,N
1619867375.1,286047001.7,N
1619867395.8,286047007.5,Y
1619867415.7,286047003.9,P
1619867435.5,286047001.3,N
1619867455.4,286047001.2,N
1619867475.2,286046998.8,N
1619867495.0,286047000.9,N
1619867495.9,286047000.9,N
1619867515.8,286047002.1,N
1619867535.6,286047001.8,N
1619867555.4,286047000.1,N
1619867575.3,286047002.1,N
1619867595.1,286047004.2,Y
1619867615.9,286046999.1,P
1619867635.7,286046997.9,N
1619867655.5,286046999.1,N
1619867675.4,286047001.2,N
1619867695.2,286046999.4,N
1619867715.1,286047001.0,N
1619867716.0,286047001.0,N
1619867735.8,286047000.8,N
1619867755.6,286046999.6,N
1619867775.5,286047001.0,N
1619867795.3,286047000.1,N
1619867815.1,286047002.8,N
1619867835.9,286047002.6,N
1619867855.7,286047002.8,N
1619867875.6,286046999.8,N
1619867895.4,286047000.5,N
1619867915.2,286047000.2,N
1619867935.1,286047001.9,N
1619867936.0,286047001.9,N
1619867955.8,286047002.5,N
1619867975.7,286047002.8,N
1619867995.5,286047002.5,N
1619868015.3,286047001.9,N
1619868035.2,286047002.2,N
1619868055.0,286047002.2,N
1619868055.9,286047002.2,N
1619868075.7,286047003.8,N
1619868095.6,286047003.1,N
1619868115.4,286047004.2,N
1619868135.3,286047004.4,N
1619868155.1,286047001.6,N
1619868175.8,286046998.5,N
1619868195.7,286046998.6,N
1619868215.5,286047002.4,N
1619868235.4,286047002.3,N
1619868255.2,286047001.6,N
1619868275.0,286047000.1,N
1619868275.9,286047000.1,N
1619868295.8,286046999.7,N
1619868315.6,286046998.3,N
1619868335.4,286047000.2,N
1619868355.3,286046999.7,N
1619868375.1,286047000.8,N
1619868395.9,286047002.0,N
1619868415.7,286046998.6,N
1619868435.5,286046995.1,N
1619868455.4,286047000.9,N
1619868475.2,286047002.8,N
1619868495.1,286047004.4,N
1619868496.0,286047004.4,N
1619868515.8,286047001.6,N
1619868535.6,286046998.1,N
1619868555.5,286047001.7,N
1619868575.3,286047001.3,N
1619868595.2,286047002.3,N
1619868615.9,286047000.6,N
1619868635.7,286047000.1,N
1619868655.6,286047001.7,N
1619868675.4,286047003.6,N
1619868695.2,286047004.1,N
1619868715.1,286047004.1,N
1619868716.0,286047004.1,N
1619868735.8,286047000.9,N
1619868755.7,286047000.9,N
1619868775.5,286047002.5,N
1619868795.3,286047001.5,N
1619868815.2,286047002.1,N
1619868835.0,286046998.3,N
1619868835.9,286046998.3,N
1619868855.8,286047001.2,N
1619868875.6,286046999.4,N
1619868895.5,286046997.1,N
1619868915.3,286046995.1,N
1619868935.1,286046999.5,N
1619868955.9,286046999.3,N
1619868975.7,286047000.7,N
1619868995.5,286047001.2,N
1619869015.4,286046998.3,N
1619869035.2,286046999.4,N
1619869055.1,286046998.6,N
1619869056.0,286046998.6,N
1619869075.8,286047000.5,N
1619869095.6,286047000.4,N
1619869115.5,286047002.2,N
1619869135.3,286047001.5,N
1619869155.2,286047002.3,N
1619869175.9,286047000.2,N
1619869195.7,286047002.2,N
1619869215.6,286047004.1,N
1619869235.4,286047004.1,N
1619869255.3,286047002.2,N
1619869275.1,286047001.8,N
1619869295.8,286047004.0,N
1619869315.7,286047004.4,N
1619869335.5,286047000.0,N
1619869355.4,286047000.4,N
1619869375.2,286046998.9,N
1619869395.0,286046998.6,N
1619869395.9,286046998.6,N
1619869415.8,286047000.2,N
1619869435.6,286047000.5,N
1619869455.4,286047000.5,N
1619869475.3,286047000.9,N
1619869495.1,286046999.8,N
1619869515.9,286046999.7,N
1619869535.7,286047000.2,N
1619869555.5,286047002.5,N
1619869575.4,286047001.5,N
1619869595.2,286047004.0,N
1619869615.1,286047001.5,N
1619869616.0,286047001.5,N
1619869635.8,286047002.1,N
1619869655.6,286047002.6,N
1619869675.5,286047002.5,N
1619869695.3,286046999.9,N
1619869715.1,286047001.4,N
1619869735.9,286047001.9,N
1619869755.7,286047001.8,N
1619869775.6,286047002.8,N
1619869795.4,286047002.7,N
1619869815.2,286047001.2,N
1619869835.1,286046998.8,N
1619869836.0,286046998.8,N
1619869855.8,286047000.3,N
1619869875.7,286046999.0,N
1619869895.5,286046997.1,N
1619869915.3,286046999.0,N
1619869935.2,286046998.7,N
1619869955.0,286047002.1,N
1619869955.9,286047002.1,N
1619869975.7,286047000.5,N
1619869995.6,286047002.4,N
1619870015.4,286046998.6,N
1619870035.3,286046999.5,N
1619870055.1,286046996.7,N
1619870056.0,286046996.7,N
1619870075.8,286046995.3,N
1619870095.7,286046996.2,N
1619870115.5,286046994.0,N
1619870135.3,286046998.0,N
1619870155.2,286046997.3,N
1619870175.0,286046997.8,N
1619870175.9,286046997.8,N
1619870195.8,286046997.8,N
1619870215.6,286046999.3,N
1619870235.4,286047000.1,N
1619870255.3,286047002.6,N
1619870275.1,286047002.1,N
1619870295.8,286047002.7,N
1619870315.7,286047002.1,N
1619870335.5,286047002.2,N
1619870355.4,286047000.9,N
1619870375.2,286047000.7,N
1619870395.0,286047000.4,N
1619870395.9,286047000.4,N
